Change the Weather History Date:

Sunday, September 30, 2012

  Actual Average (KPYM) Record (KPYM)
Temperature  
Mean Temperature 57 °F -  
Max Temperature 59 °F 67 °F 84 °F (1959)
Min Temperature 55 °F 47 °F 32 °F (1951)
Degree Days  
Heating Degree Days 8    
Growing Degree Days 7 (Base 50)    
Moisture  
Dew Point 55 °F    
Average Humidity 95    
Maximum Humidity 100    
Minimum Humidity 88    
Precipitation  
Precipitation 0.50 in - - ()
Sea Level Pressure  
Sea Level Pressure 29.81 in    
Wind  
Wind Speed 3 mph (West)    
Max Wind Speed 8 mph    
Max Gust Speed -    
Visibility 9 miles    
Events Rain    
Averages and records for this station are not official NWS values.
T = Trace of Precipitation, MM = Missing Value Source: NWS Daily Summary

Daily Weather History Graph

Daily Weather History Graph

Search for Another Location

Airport or City:

Trip Planner

Search our weather history database for the weather conditions in past years. The results will help you decide how hot, cold, wet, or windy it might be!

Date:

Astronomy

Sep. 30, 2012 Rise Set
Actual Time 6:39 AM EDT 6:25 PM EDT
Civil Twilight 6:11 AM EDT 6:53 PM EDT
Nautical Twilight 5:38 AM EDT 7:25 PM EDT
Astronomical Twilight 5:05 AM EDT 7:58 PM EDT
Moon 6:25 PM EDT (9/30) 7:08 AM EDT (9/30)
Length of Visible Light 12h 41m
Length of Day
11h 46m
Full, 100% of the Moon is Illuminated
Sep 30
Full
Oct 8
Last Quarter
Oct 15
New
Oct 21
First Quarter
Oct 29
Full

Hourly Weather History & Observations

Time (EDT) Temp. Dew Point Humidity Pressure Visibility Wind Dir Wind Speed Gust Speed Precip Events Conditions
12:15 AM 55.4 °F 55.4 °F 100% 29.92 in 10.0 mi Calm Calm - N/A   Overcast
12:35 AM 57.2 °F 55.4 °F 94% 29.92 in 10.0 mi Calm Calm - N/A   Overcast
12:55 AM 57.2 °F 53.6 °F 88% 29.91 in 10.0 mi NNE 3.5 mph - N/A   Overcast
1:15 AM 57.2 °F 53.6 °F 88% 29.91 in 10.0 mi Calm Calm - N/A   Overcast
1:55 AM 57.2 °F 53.6 °F 88% 29.91 in 10.0 mi Calm Calm - N/A   Overcast
2:15 AM 55.4 °F 55.4 °F 100% 29.91 in 10.0 mi NNW 3.5 mph - N/A   Overcast
2:35 AM 57.2 °F 53.6 °F 88% 29.90 in 10.0 mi Calm Calm - N/A   Overcast
2:55 AM 57.2 °F 53.6 °F 88% 29.90 in 10.0 mi Calm Calm - N/A   Overcast
3:15 AM 55.4 °F 53.6 °F 94% 29.89 in 10.0 mi Calm Calm - N/A   Overcast
3:35 AM 57.2 °F 53.6 °F 88% 29.89 in 10.0 mi Calm Calm - N/A   Overcast
3:55 AM 55.4 °F 53.6 °F 94% 29.89 in 10.0 mi Calm Calm - N/A   Overcast
4:15 AM 55.4 °F 53.6 °F 94% 29.89 in 10.0 mi Calm Calm - N/A   Mostly Cloudy
4:35 AM 55.4 °F 53.6 °F 94% 29.88 in 10.0 mi Calm Calm - N/A   Mostly Cloudy
4:55 AM 55.4 °F 53.6 °F 94% 29.87 in 10.0 mi Calm Calm - N/A   Overcast
5:15 AM 55.4 °F 53.6 °F 94% 29.88 in 10.0 mi Calm Calm - N/A   Overcast
5:35 AM 57.2 °F 55.4 °F 94% 29.87 in 10.0 mi Calm Calm - N/A   Overcast
5:55 AM 57.2 °F 55.4 °F 94% 29.86 in 10.0 mi North 3.5 mph - N/A   Light Drizzle
6:15 AM 57.2 °F 55.4 °F 94% 29.86 in 10.0 mi NNW 3.5 mph - N/A   Drizzle
6:35 AM 57.2 °F 55.4 °F 94% 29.86 in 10.0 mi NNW 3.5 mph - N/A   Drizzle
6:55 AM 57.2 °F 55.4 °F 94% 29.86 in 3.0 mi NNW 3.5 mph - 0.05 in Rain Heavy Rain
7:15 AM 55.4 °F 55.4 °F 100% 29.86 in 4.0 mi NNW 4.6 mph - 0.04 in Rain Rain
7:35 AM 55.4 °F 55.4 °F 100% 29.86 in 2.5 mi NNW 5.8 mph - 0.09 in Rain Rain
7:55 AM 55.4 °F 55.4 °F 100% 29.86 in 2.0 mi North 5.8 mph - 0.15 in Rain Heavy Rain
8:15 AM 55.4 °F 55.4 °F 100% 29.86 in 2.0 mi NW 4.6 mph - 0.04 in Rain Heavy Rain
8:35 AM 55.4 °F 55.4 °F 100% 29.85 in 2.0 mi North 6.9 mph - 0.08 in Rain Rain
8:55 AM 55.4 °F 55.4 °F 100% 29.84 in 4.0 mi NNW 5.8 mph - 0.10 in Rain Rain
9:15 AM 57.2 °F 55.4 °F 94% 29.84 in 4.0 mi NW 3.5 mph - 0.02 in Rain Rain
9:35 AM 57.2 °F 55.4 °F 94% 29.85 in 6.0 mi NW 4.6 mph - 0.04 in Rain Rain
9:55 AM 57.2 °F 55.4 °F 94% 29.84 in 5.0 mi NW 3.5 mph - 0.07 in Rain Rain
10:15 AM 57.2 °F 55.4 °F 94% 29.84 in 3.0 mi NW 4.6 mph - 0.03 in Rain Rain
10:35 AM 55.4 °F 55.4 °F 100% 29.83 in 5.0 mi NNW 3.5 mph - 0.05 in Rain Rain
10:55 AM 55.4 °F 55.4 °F 100% 29.80 in 3.0 mi North 6.9 mph - 0.10 in Rain Heavy Rain
11:15 AM 55.4 °F 55.4 °F 100% 29.80 in 8.0 mi NW 6.9 mph - 0.02 in   Light Drizzle
11:35 AM 55.4 °F 55.4 °F 100% 29.80 in 10.0 mi NW 4.6 mph - 0.02 in   Drizzle
11:55 AM 57.2 °F 55.4 °F 94% 29.80 in 10.0 mi WNW 4.6 mph - 0.02 in Rain Light Rain
12:15 PM 57.2 °F 57.2 °F 100% 29.79 in 10.0 mi NNW 3.5 mph - N/A   Overcast
12:35 PM 57.2 °F 57.2 °F 100% 29.79 in 10.0 mi WNW 5.8 mph - N/A   Overcast
12:55 PM 57.2 °F 57.2 °F 100% 29.78 in 10.0 mi NW 5.8 mph - N/A   Overcast
1:15 PM 57.2 °F 55.4 °F 94% 29.78 in 10.0 mi NW 4.6 mph - N/A   Overcast
1:35 PM 57.2 °F 55.4 °F 94% 29.78 in 10.0 mi West 4.6 mph - N/A   Overcast
1:55 PM 57.2 °F 55.4 °F 94% 29.78 in 10.0 mi West 3.5 mph - N/A   Light Drizzle
2:15 PM 57.2 °F 55.4 °F 94% 29.77 in 9.0 mi WNW 3.5 mph - 0.01 in   Drizzle
2:35 PM 57.2 °F 55.4 °F 94% 29.75 in 10.0 mi North 3.5 mph - 0.01 in   Overcast
2:55 PM 57.2 °F 55.4 °F 94% 29.75 in 10.0 mi Calm Calm - 0.01 in   Overcast
3:15 PM 59.0 °F 55.4 °F 88% 29.76 in 10.0 mi Calm Calm - N/A   Overcast
3:35 PM 59.0 °F 55.4 °F 88% 29.76 in 10.0 mi SW 3.5 mph - N/A   Overcast
3:55 PM 59.0 °F 55.4 °F 88% 29.75 in 10.0 mi SSW 3.5 mph - N/A   Overcast
4:15 PM 59.0 °F 57.2 °F 94% 29.75 in 10.0 mi SW 3.5 mph - N/A   Overcast
4:35 PM 59.0 °F 57.2 °F 94% 29.75 in 10.0 mi SW 3.5 mph - N/A   Overcast
4:55 PM 59.0 °F 57.2 °F 94% 29.75 in 10.0 mi SW 5.8 mph - N/A   Overcast
5:15 PM 59.0 °F 57.2 °F 94% 29.75 in 10.0 mi SW 5.8 mph - N/A   Overcast
5:35 PM 59.0 °F 55.4 °F 88% 29.75 in 10.0 mi SSW 4.6 mph - N/A   Mostly Cloudy
5:55 PM 57.2 °F 55.4 °F 94% 29.75 in 10.0 mi SSW 4.6 mph - N/A   Partly Cloudy
6:15 PM 57.2 °F 55.4 °F 94% 29.75 in 10.0 mi SW 3.5 mph - N/A   Clear
6:35 PM 55.4 °F 55.4 °F 100% 29.76 in 10.0 mi SSW 4.6 mph - N/A   Clear
6:55 PM 55.4 °F 53.6 °F 94% 29.75 in 10.0 mi SSW 4.6 mph - N/A   Clear
7:15 PM 55.4 °F 53.6 °F 94% 29.75 in 10.0 mi SW 3.5 mph - N/A   Clear
7:35 PM 55.4 °F 53.6 °F 94% 29.74 in 5.0 mi South 3.5 mph - N/A   Partly Cloudy
7:55 PM 55.4 °F 53.6 °F 94% 29.75 in 10.0 mi South 5.8 mph - N/A   Clear
8:15 PM 55.4 °F 55.4 °F 100% 29.76 in 10.0 mi South 5.8 mph - N/A   Partly Cloudy
8:35 PM 55.4 °F 55.4 °F 100% 29.76 in 10.0 mi South 6.9 mph - N/A   Clear
8:55 PM 55.4 °F 55.4 °F 100% 29.76 in 10.0 mi SSW 8.1 mph - N/A   Clear
9:15 PM 55.4 °F 55.4 °F 100% 29.76 in 10.0 mi SSW 6.9 mph - N/A   Clear
9:35 PM 55.4 °F 53.6 °F 94% 29.76 in 10.0 mi South 4.6 mph - N/A   Clear
9:55 PM 55.4 °F 55.4 °F 100% 29.76 in 10.0 mi South 4.6 mph - N/A   Clear
10:15 PM 55.4 °F 53.6 °F 94% 29.76 in 10.0 mi South 4.6 mph - N/A   Clear
10:35 PM 55.4 °F 55.4 °F 100% 29.76 in 10.0 mi SSW 5.8 mph - N/A   Clear
10:55 PM 55.4 °F 55.4 °F 100% 29.76 in 10.0 mi SSW 5.8 mph - N/A   Clear
11:15 PM 55.4 °F 53.6 °F 94% 29.76 in 10.0 mi SSW 8.1 mph - N/A   Clear
11:35 PM 55.4 °F 51.8 °F 88% 29.75 in 10.0 mi SSW 4.6 mph - N/A   Clear